DateTimeUTC,F1_A11,F1_S11,BsB_S11,BsG_S11,BsR_S11,BbsB_S11,BbsG_S11,BbsR_S11,BaB_A11,BaG_A11,BaR_A11,Tu_S11,T_S11,Uu_S11,U_S11,P_S11,T1_A11
2021-02-20T13:00:00Z,00000200,21000000,,,,,,,-000.03,-000.05,-000.28,17.3,24.6,,00.0,0630.8,31.0
2021-02-20T13:01:00Z,00000200,21000000,,,,,,,0000.02,-000.24,0000.21,17.3,24.6,,00.0,0630.8,31.0
2021-02-20T13:02:00Z,00000200,21000000,,,,,,,0000.16,0000.40,0000.09,17.3,24.6,,00.0,0630.7,31.0
2021-02-20T13:03:00Z,00000200,61000000,,,,,,,-000.03,0000.06,-000.20,17.3,24.6,,00.0,0630.7,31.0
2021-02-20T13:04:00Z,00000200,41000000,-000.11,0000.15,-000.24,0000.60,-000.05,0000.21,0000.21,-000.11,0000.19,17.8,24.5,,00.0,0631.5,31.0
2021-02-20T13:05:00Z,00000200,01000000,0000.45,0000.28,0000.06,-000.13,0000.23,0000.04,0000.17,0000.40,0000.22,17.9,24.5,,00.0,0631.6,31.0
2021-02-20T13:06:00Z,00000200,01000000,0000.18,0000.29,-000.06,0000.46,-000.00,-000.17,-000.13,-000.05,-000.18,17.9,24.5,,00.0,0631.6,31.1
2021-02-20T13:07:00Z,00000200,01000000,-000.20,0000.02,-000.04,0000.56,0000.05,-000.01,0000.02,-000.08,-000.16,17.9,24.5,,00.0,0631.5,31.0
2021-02-20T13:08:00Z,00000200,01000000,0000.31,0000.15,0000.14,0000.22,-000.04,-000.08,-000.07,0000.05,0000.15,17.9,24.5,,00.0,0631.6,31.0
2021-02-20T13:09:00Z,00000200,01000000,0000.23,0000.28,-000.05,0000.49,-000.06,-000.13,0000.33,0000.08,0000.02,17.8,24.5,,00.0,0631.6,31.0
2021-02-20T13:10:00Z,00000200,01000000,-000.14,0000.37,0000.33,0000.03,-000.04,0000.43,-000.19,-000.03,0000.00,17.8,24.5,,00.0,0631.6,31.0
2021-02-20T13:11:00Z,00000200,01000000,0000.09,0000.45,0000.16,0000.04,0000.18,0000.09,0000.19,0000.05,0000.17,17.8,24.5,00.0,00.0,0631.6,31.0
2021-02-20T13:12:00Z,00000200,01000000,0000.15,0000.13,0000.17,0000.47,-000.04,-000.04,-000.36,-000.08,0000.09,17.8,24.4,,00.0,0631.7,31.0
2021-02-20T13:13:00Z,00000200,01000000,0000.46,0000.14,0000.15,0000.30,-000.15,0000.10,0000.05,-000.32,-000.44,17.7,24.4,,00.0,0631.7,31.0
2021-02-20T13:14:00Z,00000200,01000000,0000.50,0000.05,0000.21,0000.15,0000.07,0000.21,0000.11,0000.37,0000.33,17.7,24.4,,00.0,0631.6,31.0
2021-02-20T13:15:00Z,00000200,01000000,0000.36,0000.22,-000.05,0000.15,0000.02,0000.11,-000.15,-000.29,-000.40,17.7,24.4,,00.0,0631.6,31.0
2021-02-20T13:16:00Z,00000200,01000000,0000.34,0000.06,0000.03,0000.09,-000.21,0000.10,0000.19,0000.03,-000.00,17.6,24.4,00.0,00.0,0631.5,31.0
2021-02-20T13:17:00Z,00000200,01010000,0000.27,0000.14,0000.00,0000.24,-000.36,0000.24,-000.04,0000.46,0000.41,17.7,24.3,00.0,00.0,0631.6,31.0
2021-02-20T13:18:00Z,00000200,01000000,0000.02,-000.05,0000.25,-000.14,-000.04,0000.23,0000.16,0000.14,-000.33,17.7,24.3,,00.0,0631.6,31.0
2021-02-20T13:19:00Z,00000200,01000000,0000.13,0000.11,-000.03,0000.50,-000.06,0000.20,0000.20,0000.25,0000.40,17.7,24.4,00.0,00.0,0631.6,31.0
2021-02-20T13:20:00Z,00000200,01000000,-000.01,0000.14,0000.08,0000.16,0000.22,0000.15,0000.37,0000.07,-000.00,17.7,24.4,00.0,00.0,0631.6,31.0
2021-02-20T13:21:00Z,00000200,01000000,0000.15,-000.02,-000.21,0000.14,-000.05,0000.01,-000.08,0000.11,0000.15,17.7,24.4,00.0,00.0,0631.6,31.0
2021-02-20T13:22:00Z,00000200,01000000,-000.24,0000.35,0000.03,0000.09,-000.04,0000.04,-000.17,-000.07,0000.13,17.7,24.4,00.0,00.0,0631.7,31.0
2021-02-20T13:23:00Z,00000200,01000000,-000.40,0000.07,-000.13,-000.40,0000.10,-000.02,-000.06,-000.30,-000.31,17.6,24.3,00.0,00.0,0631.6,31.0
2021-02-20T13:24:00Z,00000200,01000000,0000.02,0000.35,0000.06,0000.34,-000.07,0000.10,0000.06,0000.07,0000.26,17.6,24.3,00.0,00.0,0631.6,31.0
2021-02-20T13:25:00Z,00000200,01000000,0000.37,0000.19,0000.16,0000.19,0000.02,0000.02,0000.12,0000.26,0000.04,17.6,24.3,00.0,00.0,0631.7,31.0
2021-02-20T13:26:00Z,00000200,01000000,-000.23,0000.15,0000.06,0000.33,-000.00,0000.03,-000.02,-000.48,-000.32,17.6,24.3,00.0,00.0,0631.7,31.0
2021-02-20T13:27:00Z,00000200,01000000,0000.12,0000.23,0000.06,0000.40,-000.04,0000.06,-000.01,0000.33,0000.02,17.6,24.3,00.0,00.0,0631.7,31.0
2021-02-20T13:28:00Z,00000200,01000000,0000.07,0000.22,0000.18,0000.02,-000.01,0000.00,-000.13,-000.07,0000.07,17.5,24.3,00.0,00.0,0631.7,31.0
2021-02-20T13:29:00Z,00000200,01000000,0000.06,0000.13,-000.08,0000.07,0000.18,0000.03,0000.16,0000.01,0000.22,17.5,24.3,00.0,00.0,0631.8,31.0
2021-02-20T13:30:00Z,00000200,01000000,0000.55,0000.22,-000.13,0000.15,-000.03,-000.05,0000.09,0000.16,-000.07,17.5,24.3,00.0,00.0,0631.7,31.0
2021-02-20T13:31:00Z,00000200,01000000,-000.16,-000.01,0000.08,0000.40,0000.13,0000.11,0000.19,0000.60,0000.12,17.6,24.3,00.1,00.0,0631.8,31.0
2021-02-20T13:32:00Z,00000200,01000000,0000.58,-000.03,-000.25,0000.45,0000.08,0000.06,0000.23,-000.37,0000.31,17.6,24.3,00.0,00.0,0631.8,31.0
2021-02-20T13:33:00Z,00000200,01000000,0000.61,-000.15,0000.36,-000.17,0000.04,0000.13,0000.40,0000.64,0000.22,17.7,24.3,00.0,00.0,0631.8,31.0
2021-02-20T13:34:00Z,00000200,01000000,0000.34,0000.16,-000.10,0000.16,-000.05,-000.23,-000.23,-000.26,-000.10,17.8,24.4,00.0,00.0,0631.8,31.0
2021-02-20T13:35:00Z,00000200,01000000,0000.46,0000.24,-000.18,0000.50,-000.03,-000.00,-000.03,0000.30,0000.22,17.9,24.4,00.0,00.0,0631.8,31.1
2021-02-20T13:36:00Z,00000200,01000000,-000.24,-000.06,0000.12,-000.01,0000.17,0000.19,0000.07,0000.24,0000.02,18.1,24.5,00.0,00.0,0631.8,31.1
2021-02-20T13:37:00Z,00000200,01000000,-000.30,-000.07,0000.14,0000.48,-000.02,0000.15,0000.35,-000.44,-000.12,18.2,24.6,00.0,00.0,0631.8,31.1
2021-02-20T13:38:00Z,00000200,01000000,0000.09,0000.08,0000.26,-000.08,0000.02,0000.05,-000.52,-000.15,-000.17,18.3,24.7,00.0,00.0,0631.9,31.1
2021-02-20T13:39:00Z,00000200,01000000,-000.12,0000.11,0000.13,0000.31,-000.00,0000.11,0000.56,0000.70,0000.26,18.4,24.7,,00.0,0631.9,31.1
2021-02-20T13:40:00Z,00000200,01000000,0000.02,0000.31,-000.31,0000.27,0000.01,-000.00,-000.10,-000.25,0000.11,18.4,24.7,00.0,00.0,0631.9,31.1
2021-02-20T13:41:00Z,00000200,01000000,0000.22,0000.43,-000.24,0000.10,0000.16,0000.13,-000.36,-000.05,-000.13,18.4,24.7,00.0,00.0,0631.9,31.1
2021-02-20T13:42:00Z,00000200,01000000,0000.32,0000.09,0000.23,0000.11,-000.05,0000.15,0000.21,-000.06,-000.35,18.3,24.7,00.0,00.0,0631.9,31.1
2021-02-20T13:43:00Z,00000200,01000000,-000.24,0000.27,-000.10,0000.03,-000.00,0000.17,0000.04,-000.18,0000.41,18.3,24.7,,00.0,0631.9,31.1
2021-02-20T13:44:00Z,00000200,01000000,0000.48,0000.30,0000.06,0000.13,0000.03,-000.02,-000.03,-000.08,-000.10,18.3,24.7,00.0,00.0,0631.9,31.1
2021-02-20T13:45:00Z,00000200,01000000,0000.10,0000.19,0000.00,0000.02,0000.07,-000.02,0000.19,0000.69,0000.36,18.2,24.7,00.0,00.0,0631.9,31.1
2021-02-20T13:46:00Z,00000200,01000000,0000.26,-000.11,-000.08,0000.14,-000.06,-000.04,-000.09,-000.57,0000.03,18.2,24.7,,00.0,0631.9,31.0
2021-02-20T13:47:00Z,00000200,01000000,0000.21,0000.18,-000.09,0000.06,-000.05,-000.00,-000.14,-000.02,-000.05,18.3,24.7,00.0,00.0,0631.9,31.0
2021-02-20T13:48:00Z,00000200,01000000,0000.38,0000.17,0000.21,0000.29,0000.06,0000.18,0000.03,0000.33,-000.18,18.3,24.7,00.0,00.0,0631.9,31.0
2021-02-20T13:49:00Z,00000200,01000000,0000.07,0000.22,-000.09,-000.20,-000.01,0000.04,0000.24,0000.01,0000.17,18.4,24.8,00.0,00.0,0631.9,31.1
2021-02-20T13:50:00Z,00000200,01000000,0000.25,0000.58,0000.01,0000.24,0000.12,0000.11,0000.19,0000.25,0000.13,18.5,24.9,00.0,00.0,0632.0,31.1
2021-02-20T13:51:00Z,00000200,01000000,0000.08,0000.22,0000.19,0000.12,0000.23,0000.13,0000.02,-000.06,0000.03,18.6,24.9,00.0,00.0,0631.9,31.1
2021-02-20T13:52:00Z,00000200,01000000,0000.13,0000.13,-000.03,-000.09,0000.03,0000.08,-000.02,0000.07,-000.05,18.6,24.9,,00.0,0631.9,31.1
2021-02-20T13:53:00Z,00000200,01000000,0000.74,0000.41,0000.09,0000.20,0000.02,0000.31,-000.02,-000.16,-000.38,18.6,24.9,00.0,00.0,0632.0,31.1
2021-02-20T13:54:00Z,00000200,01000000,0000.12,0000.05,0000.09,0000.32,-000.18,0000.08,-000.17,-000.00,0000.20,18.5,24.9,00.0,00.0,0632.0,31.1
2021-02-20T13:55:00Z,00000200,01000000,-000.37,0000.13,0000.06,-000.16,0000.10,0000.08,0000.11,0000.51,-000.05,18.5,24.9,00.0,00.0,0631.9,31.1
2021-02-20T13:56:00Z,00000200,01000000,0000.35,-000.07,0000.09,0000.38,-000.05,0000.31,0000.22,-000.44,0000.33,18.5,24.9,00.0,00.0,0632.0,31.1
2021-02-20T13:57:00Z,00000200,41000000,,,,,,,-000.35,0000.02,-000.05,18.5,25.0,,00.0,0632.0,31.1
2021-02-20T13:58:00Z,00000200,61000000,,,,,,,-000.21,-000.47,-000.28,18.2,25.0,,00.0,0631.1,31.1
2021-02-20T13:59:00Z,00000200,21000000,,,,,,,0000.04,0000.35,-000.31,18.1,25.1,,00.0,0631.1,31.1
